Dewpoint
41 51 55 57 56 56 55 55 55 56 58 58 58 59 59 60 61 62 61 59 57 54 51 52 51 50 47 50 51 51 48 49 50 50 50 51 53 53 53 53 53 53 54
49 53 56 56 56 55 55 55 55 56 56 58 58 58 59 59 60 60 60 60 57 52 51 53 50 51 49 52 52 50 48 49 49 48 47 48 49 51 52 53 53 53 54
48 53 55 55 55 55 55 55 56 56 57 58 57 57 58 58 58 58 59 59 58 56 51 53 52 53 52 52 52 51 48 47 48 48 46 44 45 48 49 51 53 53 53
48 52 54 55 55 55 55 55 56 56 57 57 57 56 56 55 56 57 58 58 58 57 56 55 57 54 53 54 53 52 50 49 47 48 50 47 47 43 44 49 49 51 52
47 51 54 54 54 55 55 55 55 56 56 56 56 56 55 55 57 57 56 57 57 58 57 57 57 57 55 55 54 53 51 50 49 47 50 51 51 50 47 45 48 48 48
46 51 54 54 54 54 55 55 55 55 57 56 55 55 55 55 56 56 56 56 56 57 57 57 57 57 56 56 55 55 53 52 50 48 50 50 49 49 48 47 47 47 48
47 51 53 53 53 53 54 55 55 55 57 56 56 54 54 54 55 55 55 55 55 56 57 57 57 56 56 55 55 55 55 54 52 50 49 51 50 51 50 48 48 47 49
47 51 52 53 53 53 54 55 55 55 57 56 56 55 54 53 54 54 55 55 55 55 56 55 56 56 56 54 54 54 55 55 54 52 51 51 51 52 51 49 48 47 48
47 50 52 52 53 53 53 54 54 55 56 57 55 55 55 55 54 54 54 54 54 54 55 55 55 55 56 55 54 54 54 55 55 54 53 52 53 53 53 52 51 49 46
47 50 51 52 52 53 54 54 55 55 55 56 56 56 55 55 54 54 53 52 53 53 55 55 55 55 55 55 56 55 55 54 54 54 54 53 53 53 54 53 52 52 51
47 49 50 52 52 53 54 54 54 54 54 56 56 55 55 55 54 53 52 51 51 52 54 55 55 55 55 55 55 55 54 54 53 54 54 53 53 53 53 53 52 51 51
47 49 50 52 52 53 53 53 53 53 54 55 56 56 56 55 54 53 52 50 50 51 53 54 55 55 55 55 54 54 54 54 54 54 53 53 53 53 52 52 51 51 51
47 48 51 52 52 53 53 53 53 53 53 54 55 55 55 55 55 54 54 52 50 49 51 53 53 54 54 54 55 55 54 54 54 53 53 53 53 52 52 52 52 52 52
49 50 50 52 53 53 53 54 54 54 54 54 55 55 55 55 55 55 55 55 53 51 50 50 51 52 53 54 54 54 53 53 53 53 53 53 53 52 52 52 52 52 51
45 47 48 50 51 52 53 54 54 55 54 54 54 54 55 55 55 55 55 55 55 54 53 52 50 51 51 51 52 53 53 53 52 52 52 52 52 51 51 51 50 51 50
42 43 45 45 46 46 47 47 48 50 55 55 54 54 54 54 54 54 54 55 54 54 54 54 54 53 52 51 50 51 52 52 52 51 51 51 50 49 48 48 49 49 50
40 40 40 41 42 42 42 42 44 46 47 48 48 48 53 55 54 54 54 54 54 54 54 53 53 53 54 53 52 50 51 52 52 52 52 51 51 50 50 49 47 47 47
37 37 37 37 38 39 39 39 39 40 40 41 41 42 44 46 48 50 55 54 54 53 54 54 55 54 53 50 51 51 51 52 52 53 52 52 52 51 51 50 50 48 48
34 34 34 34 36 36 37 36 36 35 35 35 35 36 39 39 42 43 44 46 47 52 54 55 55 52 42 35 37 42 49 52 52 53 53 47 49 51 49 50 49 47 35
32 31 31 31 33 34 35 35 33 32 31 31 31 32 33 33 34 36 37 40 43 41 39 34 32 33 32 33 34 37 41 48 50 40 34 33 34 34 37 42 48 40 28
31 30 29 28 29 32 33 33 32 30 29 29 29 29 29 30 31 32 33 35 36 34 32 30 29 29 31 31 33 35 38 37 33 31 29 30 32 32 32 33 31 29 28
27 28 27 27 28 29 31 31 31 30 28 28 27 28 28 28 29 29 30 30 31 31 30 29 28 28 28 30 31 31 32 32 30 28 29 30 30 30 29 29 29 29 28
26 26 26 26 27 28 28 29 30 30 28 27 26 26 27 27 27 28 28 28 28 28 27 27 26 26 26 27 28 28 27 28 27 27 28 27 27 26 26 26 26 26 25
24 25 25 25 26 27 27 27 29 28 28 26 25 25 25 25 26 27 27 27 27 26 26 26 25 25 26 26 27 27 27 26 25 25 24 24 23 23 22 22 22 22 22
23 23 24 24 24 25 25 26 27 27 26 26 25 24 24 24 23 25 26 25 27 28 26 26 27 25 25 27 27 26 25 24 24 22 20 19 18 18 18 18 18 18 18
20 20 22 22 23 23 24 25 25 25 25 24 24 24 24 23 22 21 21 24 24 24 25 25 24 26 26 25 25 24 23 21 19 18 17 17 16 16 15 15 15 16 16
Wind_Speed
16 17 20 19 18 17 18 16 15 13 12 12 12 11 11 15 19 20 22 21 19 19 18 17 18 18 20 20 20 13 18 13 14 14 8 4 4 10 11 11 13 14 14
17 20 22 21 21 21 18 16 15 15 13 8 8 4 7 6 12 13 20 20 19 18 17 18 20 18 19 19 19 19 9 7 16 11 10 6 2 6 9 10 12 16 13
26 23 24 24 21 20 18 18 16 16 12 12 11 10 9 8 5 17 17 17 20 17 18 16 18 18 16 17 18 18 18 13 15 18 8 7 8 6 7 16 14 14 15
21 22 26 25 24 21 17 17 17 16 12 13 12 13 10 11 4 11 16 16 18 19 16 16 14 18 16 16 16 15 18 15 20 7 3 6 7 6 5 6 16 16 17
29 29 29 27 23 20 19 18 18 17 14 13 13 12 11 9 12 11 16 18 13 14 14 14 13 15 15 15 16 16 18 16 15 15 7 4 4 4 4 6 7 10 14
23 17 18 22 21 19 18 19 19 18 15 15 14 13 13 13 14 14 15 17 14 11 12 14 15 14 15 18 18 17 16 19 17 18 16 12 9 9 5 4 4 12 10
21 25 28 27 23 23 21 20 21 18 17 15 16 15 15 12 14 14 15 17 16 14 15 15 16 17 16 16 15 15 14 14 15 22 21 17 17 9 5 6 7 9 11
26 31 30 29 26 25 23 22 22 20 17 17 15 15 15 14 12 14 13 14 16 17 18 17 17 17 17 17 17 15 8 8 15 19 18 19 17 13 10 10 10 6 7
26 28 26 25 26 25 25 23 22 21 20 18 17 16 16 14 14 13 13 14 14 15 19 17 15 14 16 17 18 15 17 13 16 21 19 18 16 16 15 12 11 10 12
20 21 23 25 23 22 22 20 20 20 20 18 18 16 17 17 15 15 15 15 13 14 15 16 16 15 16 17 17 19 21 22 23 19 18 19 14 17 13 16 17 12 16
23 24 22 20 20 20 21 20 20 19 19 19 18 15 15 15 15 16 16 17 15 15 15 15 15 16 17 18 19 20 21 25 26 20 19 22 19 17 17 18 17 16 18
15 17 20 23 23 22 20 21 21 21 19 19 18 17 16 15 16 16 17 16 18 16 17 17 17 18 17 17 20 20 20 21 22 19 19 23 18 22 21 20 23 22 22
18 16 16 14 12 11 11 11 9 10 9 13 14 15 16 16 16 15 15 16 17 18 17 17 19 18 19 20 19 21 22 22 24 24 24 26 21 22 20 20 21 21 21
23 22 18 16 15 12 11 11 11 12 12 14 15 13 13 15 16 17 16 15 16 18 19 19 21 21 20 21 23 23 23 23 21 21 24 24 24 28 25 23 26 26 24
26 23 22 20 20 17 11 7 10 15 15 14 13 15 15 15 15 16 17 17 19 19 19 19 20 21 23 23 23 24 24 23 23 22 23 25 27 31 32 27 30 26 25
22 22 23 22 21 19 17 15 14 9 12 15 15 14 15 15 17 16 17 17 18 19 19 21 22 23 22 23 28 26 23 24 25 28 28 26 28 34 36 37 40 33 28
19 22 21 21 20 18 16 17 16 17 21 17 15 11 2 13 14 15 15 16 17 18 20 22 22 24 25 26 30 33 30 27 27 28 28 27 25 29 29 32 37 40 42
16 20 19 19 19 17 18 17 18 19 19 19 16 16 14 12 9 9 13 17 18 20 21 21 20 22 21 14 26 33 31 31 32 30 30 31 33 31 31 32 31 30 30
17 19 18 18 18 19 18 18 20 19 19 18 17 15 14 14 15 14 12 9 9 7 15 15 16 13 7 16 12 10 23 28 32 32 31 17 22 24 23 29 29 22 8
19 18 17 17 18 17 16 18 19 19 21 18 16 15 15 15 14 14 15 12 9 9 12 16 17 19 14 20 17 11 7 16 17 3 9 15 10 11 12 13 20 14 9
18 15 18 21 19 17 17 19 18 19 15 15 16 18 17 16 15 14 15 15 14 14 16 17 16 18 19 18 18 10 5 5 9 13 15 16 16 19 21 21 18 16 18
18 17 17 17 16 16 14 15 17 14 16 16 18 19 18 18 16 16 15 17 15 16 16 14 15 15 16 24 24 24 19 14 18 16 15 18 27 27 28 25 29 27 21
15 15 14 15 17 17 16 17 15 13 13 15 15 16 16 16 18 19 18 17 17 16 16 15 14 14 14 15 21 28 26 25 22 18 22 23 25 26 27 30 25 22 21
16 15 16 19 19 19 19 16 14 12 12 13 13 14 18 18 17 18 19 18 17 16 15 15 15 14 14 15 14 14 15 18 18 17 18 19 22 26 22 23 23 21 19
16 16 18 18 19 18 19 18 16 11 13 12 12 13 14 17 22 26 21 22 25 19 16 17 16 16 18 20 22 19 16 15 15 16 18 20 20 20 19 20 20 19 19
14 16 17 18 18 17 17 18 17 15 12 14 13 12 12 12 13 16 21 33 32 33 32 29 21 21 25 25 25 24 24 22 19 19 18 18 17 18 16 16 16 16 16
Wind_Direction
223 174 161 160 161 160 160 161 160 165 163 172 178 184 179 183 186 167 159 158 158 161 154 157 160 165 167 172 167 162 157 153 138 122 113 89 162 180 186 184 189 203 206
167 164 162 170 173 170 169 162 156 162 176 152 172 139 169 161 167 149 152 159 154 160 157 166 170 171 169 171 166 169 155 138 159 148 143 155 209 226 206 201 202 210 202
181 171 174 179 175 175 171 170 159 165 162 152 132 128 112 117 130 148 153 155 157 157 166 170 173 172 173 177 171 166 170 169 187 163 161 148 206 169 201 215 215 214 211
187 177 174 181 180 177 172 170 162 163 165 150 156 162 164 156 143 159 147 140 156 164 166 177 171 177 179 179 180 173 178 172 185 186 236 153 150 166 191 226 224 215 216
190 184 187 182 176 170 173 170 164 164 174 162 158 157 153 142 135 141 149 146 142 148 151 163 167 173 181 179 182 175 179 182 181 190 172 172 172 147 158 184 215 217 223
201 192 171 170 170 170 168 162 167 176 171 169 173 171 159 148 154 153 157 156 159 157 168 174 177 185 183 183 184 183 182 189 189 197 188 182 176 189 166 176 180 221 227
181 171 170 175 171 172 169 167 170 177 171 172 174 184 188 162 163 164 164 167 175 184 188 190 193 194 189 180 174 184 186 189 198 194 199 197 194 176 197 184 197 220 232
187 182 178 174 171 172 173 172 173 175 176 181 178 182 188 188 180 171 170 181 189 193 190 189 191 188 186 186 177 184 216 197 211 211 201 203 200 186 185 196 189 231 248
185 181 172 173 168 171 178 178 178 176 177 180 192 181 179 183 189 184 182 186 190 199 195 187 184 182 184 189 182 188 207 220 232 227 214 204 211 207 209 206 196 196 270
171 171 174 171 169 168 171 177 181 181 179 179 186 185 178 181 183 182 189 190 192 192 187 186 180 183 187 190 191 199 214 218 231 226 215 215 210 208 205 211 212 198 226
174 170 172 166 160 162 166 174 182 185 183 185 189 196 188 184 181 187 188 191 188 194 189 186 189 195 198 197 195 202 207 213 221 220 219 225 220 219 211 216 230 226 220
160 164 157 156 159 165 169 176 183 185 182 185 188 193 196 192 191 194 196 189 196 196 197 195 196 201 203 200 205 211 214 215 222 224 223 232 226 226 226 226 233 236 232
102 112 118 126 132 142 159 167 176 191 186 186 186 194 195 197 204 206 202 196 199 201 201 202 209 209 209 210 210 215 219 217 221 222 221 227 226 231 234 230 234 233 237
80 81 96 114 123 135 150 163 178 191 189 192 195 193 198 199 202 208 206 207 207 210 210 212 217 220 220 219 221 222 227 229 228 227 228 229 226 232 233 232 236 240 241
65 68 73 71 74 73 81 157 185 191 193 194 199 207 205 206 208 210 211 209 208 214 216 219 224 225 226 228 229 231 235 236 238 238 237 236 235 236 236 238 243 241 242
62 65 64 62 58 56 52 46 37 25 198 193 199 204 207 211 216 218 217 211 211 217 220 221 222 227 230 231 230 229 234 236 237 242 242 242 241 242 241 236 239 240 236
59 63 62 57 54 53 51 48 45 48 65 69 60 46 321 225 224 225 225 228 226 222 222 225 226 232 234 231 229 229 233 238 237 239 243 246 244 242 243 244 241 243 241
61 59 56 54 52 50 48 48 47 51 57 57 49 35 27 23 12 7 236 228 230 232 233 233 233 239 245 261 240 232 229 235 240 241 242 241 245 240 236 239 240 238 245
60 61 55 50 50 49 46 51 51 51 50 47 44 33 33 30 20 18 8 360 344 301 255 240 248 262 58 17 357 297 239 239 242 245 247 279 271 266 262 241 240 235 165
59 51 47 49 46 50 55 57 51 46 44 34 38 35 36 38 30 22 11 360 15 34 53 62 52 45 40 21 9 351 293 261 261 75 53 44 57 36 359 278 257 205 116
58 55 51 46 34 29 44 50 53 51 49 43 43 42 36 39 32 32 28 28 40 59 64 66 56 50 37 25 18 23 82 112 77 63 46 29 46 77 84 90 84 96 95
48 48 53 50 39 34 48 51 48 52 53 45 41 39 39 40 36 39 38 42 49 54 53 56 52 42 35 38 38 45 54 75 92 86 76 69 79 64 65 72 89 94 88
49 52 58 57 44 39 39 45 29 43 50 58 56 55 53 48 45 44 42 44 45 53 53 56 54 45 35 36 42 54 57 63 73 67 69 60 54 57 63 60 59 66 80
41 43 49 47 39 32 35 36 35 56 60 61 54 55 58 56 54 57 52 51 50 56 58 57 56 54 48 40 34 41 47 54 62 68 59 56 56 55 52 52 49 53 58
43 43 46 45 40 33 33 30 29 56 70 68 62 57 62 64 63 57 55 58 53 58 67 63 61 61 61 57 61 61 58 56 58 69 61 57 53 52 51 53 53 53 55
43 47 47 46 40 37 33 31 35 44 63 67 58 55 56 60 67 70 66 58 61 59 61 63 67 64 67 66 64 62 62 60 59 62 59 56 58 60 55 54 55 52 53